Regional Weather Roundup
Issued by NWS

Home | Current Version | Previous Version | Text Only | Print | Product List | Glossary On
Versions: 1 2 3 4 5 6 7 8 9 10 11 12 13 14 15 16 17 18 19 20 21 22 23 24 25 26 27 28 29 30 31 32 33 34 35 36 37 38 39 40 41 42 43 44 45 46 47 48 49 50
000
ASUS43 KFSD 231210
RWRSD

WEATHER ROUNDUP FOR SOUTH DAKOTA
NATIONAL WEATHER SERVICE SIOUX FALLS SD
700 AM CDT WED JUL 23 2014

NOTE: "FAIR" INDICATES FEW OR NO CLOUDS BELOW 12,000 FEET WITH NO
SIGNIFICANT WEATHER AND/OR OBSTRUCTIONS TO VISIBILITY.


SDZ001>005-009-010-012>017-231300-
NORTHWEST AND NORTH CENTRAL SOUTH DAKOTA

CITY           SKY/WX    TMP DP  RH WIND       PRES   REMARKS
BUFFALO          N/A     60  58  92 E8        30.17S
FAITH            N/A     63  60  90 SE13      30.23S
MOBRIDGE       CLEAR     61  58  90 E8        30.24S
$$

SDZ012>016-024>037-041>051-057-063-072>074-231300-
SOUTHWEST AND SOUTH CENTRAL SOUTH DAKOTA

CITY           SKY/WX    TMP DP  RH WIND       PRES   REMARKS
RAPID CTY ARPT PTCLDY    64  57  78 S6        30.24F
PIERRE         MOCLDY    64  59  83 E10       30.24R
CUSTER         CLEAR     56  52  86 W3        30.40F
ELLSWORTH AFB  PTCLDY    66  57  72 SW13      30.23F THUNDER
PHILIP         MOCLDY    69  60  73 E5        30.20R
PINE RIDGE     MOCLDY    66  55  67 S6        30.27R
WINNER         FAIR      65  59  81 SE8       30.28F
$$

SDZ004>011-016>023-039-040-231300-
NORTHEAST SOUTH DAKOTA

CITY           SKY/WX    TMP DP  RH WIND       PRES   REMARKS
ABERDEEN       PTCLDY    55  55 100 CALM      30.29R
WATERTOWN      CLEAR     57  54  89 N3        30.30F
SISSETON         N/A     61  59  93 CALM      30.28S
$$

SDZ017-020-022-023-036>040-048>070-231300-
SOUTHEAST SOUTH DAKOTA

CITY           SKY/WX    TMP DP  RH WIND       PRES   REMARKS
SIOUX FALLS    MOCLDY    60  56  86 NE7       30.28R
HURON          MOCLDY    61  57  87 E6        30.27S
CHAMBERLAIN    CLOUDY    61  58  92 SE6       30.29S
MITCHELL       MOCLDY    63  58  83 CALM      30.30R
YANKTON        MOCLDY    61  55  82 NE3       30.28R
$$

ABBREVIATIONS USED IN REMARKS
   TC - TEMPERATURE IN CELSIUS
  WCI - WIND CHILL INDEX
   HX - HEAT INDEX
  VSB - VISIBILITY




USA.gov is the U.S. government's official web portal to all federal, state and local government web resources and services.